Location: Unspecified
(0.0000°N, 0.0000°E)
Time: 09:21:10
(UTC+00:00)

deb r/b Ablestar - Pass Details

Date: 13 March 2026
Orbit: 827 x 964 km, 67.7° (Epoch: 19 April)

Event Time Altitude Azimuth Distance (km) Brightness Sun altitude
Rises 19:33:36 0° 327° (NNW) 3,464 ? -21.0°
Reaches altitude 10° 19:36:10 10° 320° (NW) 2,549 ? -21.7°
Maximum altitude 19:41:40 41° 251° (WSW) 1,297 ? -23.0°
Drops below altitude 10° 19:47:25 10° 182° (S) 2,645 ? -24.5°
Sets 19:50:08 0° 175° (S) 3,609 ? -25.2°
